Regional Weather Roundup
Issued by NWS

Home | Current Version | Previous Version | Graphics & Text | Print | Product List | Glossary On
Versions: 1 2 3 4 5 6 7 8 9 10 11 12 13 14 15 16 17 18 19 20 21 22 23 24 25 26 27 28 29 30 31 32 33 34 35 36 37 38 39 40 41 42 43 44 45 46 47 48 49 50
000
ASUS44 KMEG 211510
RWRTN
TENNESSEE HOURLY STATE WEATHER ROUNDUP
NATIONAL WEATHER SERVICE MEMPHIS TN
1000 AM CDT TUE OCT 21 2014

TNZ002-004-019-021-049-052-054-088>092-211600-
WEST TENNESSEE

CITY           SKY/WX    TMP DP  RH WIND       PRES   REMARKS
MEMPHIS INTL   SUNNY     68  52  56 CALM      30.11R
NWS MEMPHIS      N/A     64 N/A N/A MISG        N/A
JACKSON        SUNNY     64  53  67 CALM      30.10R
DYERSBURG      SUNNY     61  46  59 CALM      30.12R
UNION CITY     SUNNY     61  52  72 CALM      30.09S
PARIS          SUNNY     61  46  59 VRB3      30.10R
HUNTINGDON     SUNNY     60  50  69 NW5       30.10R
LEXINGTON      SUNNY     61  54  77 CALM      30.09R
SAVANNAH       SUNNY     61  57  88 CALM      30.10R
$$

TNZ008-025-027-028-033-062-065-066-211600-
NORTH MIDDLE TENNESSEE

CITY           SKY/WX    TMP DP  RH WIND       PRES   REMARKS
NASHVILLE      SUNNY     63  51  65 CALM      30.08R
CLARKSVILLE    SUNNY     62  50  64 NW6       30.08R
SMYRNA         SUNNY     60  53  77 CALM      30.09R
COOKEVILLE     SUNNY     59  52  77 CALM      30.06S
CROSSVILLE     SUNNY     58  47  66 NW7       30.07R
$$

TNZ061-075-076-078-094-096-097-211600-
SOUTH MIDDLE TENNESSEE

CITY           SKY/WX    TMP DP  RH WIND       PRES   REMARKS
FAYETTEVILLE   SUNNY     59  50  72 NE18G44   30.08R
TULLAHOMA      SUNNY     61  52  72 VRB5      30.08S
WINCHESTER     SUNNY     61  52  72 CALM      30.08R
MCMINNVILLE    SUNNY     61  55  82 CALM      30.07S
COLUMBIA       SUNNY     61  61 100 CALM      30.07R
SHELBYVILLE    SUNNY     61  54  77 CALM      30.09R
$$

TNZ017-018-042-046-047-211600-
NORTHEAST TENNESSEE

CITY           SKY/WX    TMP DP  RH WIND       PRES   REMARKS
TRI CITIES     PTSUNNY   58  51  78 W12       30.00S
ELIZABETHTON   CLOUDY    55  48  76 W7        29.99S
$$

TNZ012-013-036-069-073-074-211600-
CENTRAL EAST TENNESSEE

CITY           SKY/WX    TMP DP  RH WIND       PRES   REMARKS
KNOXVILLE      MOSUNNY   60  52  74 W7        30.03S
OAK RIDGE      SUNNY     62  51  67 S3        30.05R
GATLINBURG     SUNNY     63  50  63 W12       30.03R
MORRISTOWN     SUNNY     61  52  72 W9        30.03R
$$

TNZ083-085-099-211600-
SOUTHEAST TENNESSEE

CITY           SKY/WX    TMP DP  RH WIND       PRES   REMARKS
CHATTANOOGA    SUNNY     63  54  72 CALM      30.05S
$$

SKY/WX REPORTED AS FAIR MEANS FEW OR NO CLOUDS BELOW
12 THOUSAND FEET.



USA.gov is the U.S. government's official web portal to all federal, state and local government web resources and services.